Location: Newark
(34.3481°N, 134.0494°E)
Time: 03:00:00
(UTC+00:00)

Transit 2A - Visible Passes

Search period start: 26 January 2020 00:00
Search period end: 05 February 2020 00:00
Orbit: 601 x 958 km, 66.7° (Epoch: 25 January)

Date Brightness Start Highest point End Pass type
(mag) Time Alt. Az. Time Alt. Az. Time Alt. Az.
26 Jan 6.1 10:35:16 10° SW 10:39:23 56° W 10:39:23 56° W visible
26 Jan 6.9 19:29:12 44° ENE 19:29:12 44° ENE 19:33:56 10° SE visible
26 Jan 7.4 21:09:45 16° W 21:11:39 19° WSW 21:15:23 10° SSW visible
27 Jan 5.4 10:01:04 10° SSW 10:05:34 85° ESE 10:07:04 40° NNE visible
27 Jan 8.2 18:56:52 22° E 18:56:52 22° E 18:59:16 10° ESE visible
27 Jan 6.8 20:37:26 29° WSW 20:37:37 29° WSW 20:42:20 10° SSW visible
28 Jan 5.7 09:27:08 10° S 09:31:29 50° ESE 09:34:42 16° NE visible
28 Jan 8.3 11:12:38 10° W 11:14:51 14° NW 11:15:16 13° NW visible
28 Jan 6.9 20:05:11 35° SSW 20:05:11 35° SSW 20:08:49 10° S visible
29 Jan 6.5 08:53:32 10° S 08:57:27 30° ESE 09:01:15 10° NE visible
29 Jan 7.8 10:37:13 10° WSW 10:40:32 21° NW 10:42:49 14° NNW visible
29 Jan 7.8 19:32:59 22° SSE 19:32:59 22° SSE 19:35:00 10° SSE visible
30 Jan 7.2 10:02:20 10° WSW 10:06:18 32° WNW 10:10:13 10° N visible
30 Jan 8.8 19:00:49 11° SSE 19:00:49 11° SSE 19:00:55 10° SSE visible
31 Jan 6.3 09:27:47 10° SW 09:32:08 52° WNW 09:36:22 10° NNE visible
01 Feb 5.6 08:53:32 10° SSW 08:58:00 87° WNW 09:02:21 10° NNE visible
02 Feb 8.3 10:05:31 10° WNW 10:07:21 12° NW 10:09:12 10° NNW visible
03 Feb 8.0 09:29:54 10° W 09:33:01 19° NW 09:36:09 10° N visible
04 Feb 7.4 08:54:56 10° WSW 08:58:46 29° WNW 09:02:34 10° N visible
